Flag for Canada Weather past 2 weeks in Surrey, British Columbia, Canada

Now
52 °F

Cool.


Feels Like: 52 °F
Forecast: 51 / 74 °F
Wind: No wind

Location: P. Meadows Coastal Station

Current Time: Sep 20, 2014 at 9:03:26 AM

Latest Report: Sep 20, 2014 at 6:00 AM


Visibility: N/A

Pressure: 30.15 "Hg

Humidity: 99%

Dew point: 52 °F

Location of SurreyLocation

Historic Weather in Surrey — Graph

°F

Surrey temperature yesterday

Maximum temperature yesterday: 65 °F (at 6:00 PM)
Minimum temperature yesterday: 58 °F (at 1:00 AM)
Average temperature yesterday: 61 °F

Past Weeks' High & Low Weather Summary

 TemperatureHumidityPressure
High87 °F (Sep 15, 4:00 PM)100% (Sep 15, 7:00 AM)30.34 "Hg (Sep 15, 7:00 AM)
Low43 °F (Sep 12, 7:00 AM)17% (Sep 10, 5:00 PM)29.70 "Hg (Sep 17, 7:00 PM)
Average63 °F69%29.97 "Hg
* Reported Sep 5 6:00 AM — Sep 20 6:00 AM, Surrey, Weather by CustomWeather, © 2014

Note: Actual official high and low records may vary slightly from our data, if they occured in-between our weather recording intervals... More about our weather records

Advertising

Surrey weather history for previous 24 hours

 ConditionsComfort  
Time TempWeatherWind HumidityBarometerVisibility
6:00 AM
Sep 20
52 °FCool.No wind99%30.15 "HgN/A
5:00 AM52 °FCool.No wind99%30.15 "HgN/A
4:00 AM53 °FCool.2 mph99%30.14 "HgN/A
3:00 AM54 °FCool.1 mph99%30.15 "HgN/A
2:00 AM54 °FCool.No wind99%30.15 "HgN/A
1:00 AM53 °FCool.No wind99%30.15 "HgN/A
12:00 AM55 °FCool.2 mph92%30.15 "HgN/A
11:00 PM
Sep 19
59 °FCool.2 mph98%30.14 "HgN/A
10:00 PM59 °FCool.No wind98%30.14 "HgN/A
9:00 PM60 °FCool.3 mph97%30.12 "HgN/A
8:00 PM61 °FCool.1 mph94%30.11 "HgN/A
7:00 PM63 °FMild.5 mph92%30.11 "HgN/A
6:00 PM65 °FMild.2 mph88%30.12 "HgN/A
5:00 PM64 °FMild.5 mph90%30.11 "HgN/A
4:00 PM63 °FMild.3 mph90%30.11 "HgN/A
3:00 PM63 °FMild.5 mph93%30.11 "HgN/A
2:00 PM63 °FMild.2 mph92%30.11 "HgN/A
1:00 PM62 °FCool.3 mph96%30.12 "HgN/A
12:00 PM60 °FCool.2 mph96%30.11 "HgN/A
11:00 AM60 °FCool.5 mph96%30.10 "HgN/A
10:00 AM60 °FCool.2 mph96%30.08 "HgN/A
9:00 AM60 °FCool.3 mph96%30.05 "HgN/A
Weather by CustomWeather, © 2014

See weather overviewHow to use our weather pages